sat.trackr.live / text

‹ back to catalog

STARLINK-11438 [DTC]

NORAD 62888 · 2025-024K

PAYLOAD ACTIVE UNKNOWN

§ Identity

Operator
Country
US
Launch date
2025-02-04
Launch site
AFETR
Launch vehicle
Mass (kg)
RCS (m²)

Purposes: comms

External: N2YO · Heavens-Above · Gunter

§ Orbital elements

Epoch: 2026-05-25T04:54:17.853120Z

Period
91.67 min
Inclination
43.0007°
Eccentricity
0.0000981
Mean motion
15.70892952 rev/d
Perigee alt
355.7 km
Apogee alt
357.0 km
Semi-major
6,734.5 km
B*
1.6456e-3
RAAN
79.9545°
Arg perigee
253.1663°
Mean anomaly
106.9097°
Rev number
7,550

§ Raw data

STARLINK-11438 [DTC]1 62888U 25024K   26145.20437330  .00216791  00000+0  16456-2 0  99942 62888  43.0007  79.9545 0000981 253.1663 106.9097 15.70892952 75508

JSON: /api/v1/satellites/62888 · /tle

For live sub-satellite position, see the globe view (requires WebGL).

§ Visibility from observer

Set your observer location to see the next 7 days of passes ≥ 10°. The values pass through the URL so the page stays shareable.

No JS? Fill the form by hand. The geolocation button needs JavaScript.